Date String (YYYY-MM-DD hh:mm:ss) UTC,Instrument flags,absolute air pressure of the measurement (hPa),sample flow rate (lpm),inlet stack bypass flow (lpm),air temperature of the measurement (°C),ambient temperature measured by the external sensor (°C),aerosol sample conditioner tube jacket temperature (°C),OPC LED temperature (°C),internal box temperature (°C),relative humidity of the measurement (%),span deviation,mass concentration of particles derived from Lorenz-Mie calculation of OPC scattering (μg/m³),mass concentration of particles derived from Lorenz-Mie calculation of OPC scattering (μg/m³),mass concentration of particles derived from Lorenz-Mie calculation of OPC scattering (μg/m³)
DateTimeUTC,F1_M11,P_M11,Q1_M11,Q2_M11,T1_M11,T2_M11,T3_M11,T4_M11,T5_M11,U1_M11,ZSPAN_M11,X0_M11,X2_M11,X1_M11
2024-06-06 05:00:00,SystemResetWarning,0829.5,5.00,000.00,029.9,028.1,000.0,038.0,031.0,015.9,0000.0,0007.40,0001.71,0001.00
2024-06-06 05:01:00,SystemResetWarning,0829.4,5.02,000.00,029.5,026.4,000.0,038.1,030.2,016.3,0000.0,0007.33,0001.61,0000.98
2024-06-06 05:02:00,SystemResetWarning,0829.4,5.01,000.00,029.3,026.7,000.0,038.0,030.3,016.5,0000.0,0007.47,0001.59,0000.99
2024-06-06 05:03:00,SystemResetWarning,0829.5,4.99,000.00,029.3,027.1,000.0,037.9,030.5,016.6,0000.0,0007.22,0001.63,0000.99
2024-06-06 05:04:00,SystemResetWarning,0829.5,5.00,000.00,029.3,027.5,000.0,037.8,030.7,016.6,0000.0,0007.09,0001.66,0000.99
2024-06-06 05:05:00,SystemResetWarning,0829.6,5.00,000.00,029.4,027.8,000.0,037.8,030.9,016.6,0000.0,0007.91,0001.65,0001.00
2024-06-06 05:06:00,SystemResetWarning,0829.6,5.01,000.00,029.4,028.1,000.0,037.8,031.0,016.6,0000.0,0008.32,0001.67,0001.00
2024-06-06 05:07:00,SystemResetWarning,0829.6,5.00,000.00,029.5,028.4,000.0,037.7,031.2,016.5,0000.0,0008.31,0001.69,0001.01
2024-06-06 05:08:00,SystemResetWarning,0829.6,4.99,000.00,029.5,028.6,000.0,037.7,031.3,016.4,0000.0,0008.17,0001.69,0001.01
2024-06-06 05:09:00,SystemResetWarning,0829.6,4.99,000.00,029.6,028.8,000.0,037.7,031.4,016.4,0000.0,0007.84,0001.71,0001.01
2024-06-06 05:10:00,SystemResetWarning,0829.6,4.99,000.00,029.7,029.0,000.0,037.8,031.4,016.3,0000.0,0007.53,0001.71,0001.01
2024-06-06 05:11:00,SystemResetWarning,0829.6,5.01,000.00,029.7,029.1,000.0,037.8,031.5,016.3,0000.0,0007.65,0001.72,0001.00
2024-06-06 05:12:00,SystemResetWarning,0829.6,5.01,000.00,029.8,029.2,000.0,037.8,031.6,016.2,0000.0,0007.68,0001.74,0001.00
2024-06-06 05:13:00,SystemResetWarning,0829.7,4.99,000.00,029.8,029.3,000.0,037.9,031.7,016.2,0000.0,0007.56,0001.77,0001.01
2024-06-06 05:14:00,SystemResetWarning,0829.7,4.99,000.00,029.9,029.4,000.0,037.9,031.7,016.1,0000.0,0007.57,0001.73,0001.00
2024-06-06 05:15:00,SystemResetWarning,0829.7,4.99,000.00,030.0,029.5,000.0,037.9,031.8,016.1,0000.0,0007.42,0001.70,0001.00
2024-06-06 05:16:00,SystemResetWarning,0829.7,4.99,000.00,030.0,029.2,000.0,038.0,031.6,016.0,0000.0,0006.04,0001.64,0000.98
2024-06-06 05:17:00,SystemResetWarning,0829.6,5.01,000.00,029.7,027.0,000.0,038.1,030.5,016.2,0000.0,0005.34,0001.61,0000.98
2024-06-06 05:18:00,SystemResetWarning,0829.6,5.01,000.00,029.4,026.5,000.0,038.1,030.2,016.5,0000.0,0004.12,0001.60,0000.97
2024-06-06 05:19:00,SystemResetWarning,0829.6,4.99,000.00,029.3,026.9,000.0,038.0,030.3,016.6,0000.0,0004.12,0001.60,0000.98
2024-06-06 05:20:00,SystemResetWarning,0829.6,4.99,000.00,029.3,027.2,000.0,037.9,030.6,016.6,0000.0,0004.00,0001.58,0000.97
2024-06-06 05:21:00,SystemResetWarning,0829.6,5.00,000.00,029.3,027.6,000.0,037.8,030.8,016.6,0000.0,0003.87,0001.58,0000.96
2024-06-06 05:22:00,SystemResetWarning,0829.7,5.02,000.00,029.4,028.0,000.0,037.8,031.0,016.5,0000.0,0003.61,0001.58,0000.95
2024-06-06 05:23:00,SystemResetWarning,0829.6,5.00,000.00,029.4,028.2,000.0,037.8,031.1,016.5,0000.0,0004.36,0001.54,0000.95
2024-06-06 05:24:00,SystemResetWarning,0829.6,5.00,000.00,029.5,028.5,000.0,037.8,031.2,016.4,0000.0,0004.56,0001.50,0000.95
2024-06-06 05:25:00,SystemResetWarning,0829.7,5.00,000.00,029.6,028.7,000.0,037.8,031.3,016.3,0000.0,0005.15,0001.48,0000.95
2024-06-06 05:26:00,SystemResetWarning,0829.6,4.99,000.00,029.6,028.9,000.0,037.8,031.4,016.3,0000.0,0005.10,0001.49,0000.95
2024-06-06 05:27:00,SystemResetWarning,0829.6,4.99,000.00,029.7,029.0,000.0,037.8,031.5,016.3,0000.0,0005.40,0001.57,0000.96
2024-06-06 05:28:00,SystemResetWarning,0829.6,5.00,000.00,029.8,029.1,000.0,037.8,031.5,016.2,0000.0,0006.37,0001.61,0000.98
2024-06-06 05:29:00,SystemResetWarning,0829.6,5.00,000.00,029.8,029.2,000.0,037.8,031.6,016.2,0000.0,0006.29,0001.62,0000.98
2024-06-06 05:30:00,SystemResetWarning,0829.6,5.00,000.00,029.9,029.4,000.0,037.9,031.7,016.2,0000.0,0006.56,0001.68,0000.97
2024-06-06 05:31:00,SystemResetWarning,0829.6,5.00,000.00,029.9,029.4,000.0,037.9,031.8,016.0,0000.0,0006.89,0001.73,0000.97
2024-06-06 05:32:00,SystemResetWarning,0829.7,5.00,000.00,030.0,029.5,000.0,038.0,031.8,016.0,0000.0,0007.05,0001.74,0000.98
2024-06-06 05:33:00,SystemResetWarning,0829.6,4.99,000.00,030.1,029.6,000.0,038.0,031.9,016.0,0000.0,0007.53,0001.77,0000.99
2024-06-06 05:34:00,SystemResetWarning,0829.6,4.99,000.00,030.0,028.5,000.0,038.1,031.3,016.0,0000.0,0007.50,0001.83,0001.00
2024-06-06 05:35:00,SystemResetWarning,0829.5,5.01,000.00,029.6,026.5,000.0,038.1,030.4,016.3,0000.0,0007.34,0001.85,0001.00
2024-06-06 05:36:00,SystemResetWarning,0829.4,5.02,000.00,029.4,026.6,000.0,038.1,030.3,016.5,0000.0,0007.10,0001.84,0001.00
2024-06-06 05:37:00,SystemResetWarning,0829.5,4.99,000.00,029.3,027.0,000.0,038.0,030.5,016.5,0000.0,0007.35,0001.83,0001.00
2024-06-06 05:38:00,SystemResetWarning,0829.6,4.99,000.00,029.3,027.4,000.0,037.9,030.7,016.5,0000.0,0007.31,0001.82,0000.99
2024-06-06 05:39:00,SystemResetWarning,0829.6,5.00,000.00,029.4,027.8,000.0,037.9,030.9,016.4,0000.0,0006.34,0001.78,0000.99
2024-06-06 05:40:00,SystemResetWarning,0829.6,5.00,000.00,029.4,028.1,000.0,037.8,031.0,016.4,0000.0,0006.26,0001.76,0000.98
2024-06-06 05:41:00,SystemResetWarning,0829.7,5.00,000.00,029.5,028.3,000.0,037.8,031.1,016.3,0000.0,0006.10,0001.70,0000.98
2024-06-06 05:42:00,SystemResetWarning,0829.6,5.00,000.00,029.5,028.6,000.0,037.8,031.2,016.4,0000.0,0005.81,0001.63,0000.97
2024-06-06 05:43:00,SystemResetWarning,0829.7,4.99,000.00,029.6,028.7,000.0,037.8,031.3,016.4,0000.0,0005.58,0001.62,0000.96
2024-06-06 05:44:00,SystemResetWarning,0829.7,5.00,000.00,029.7,028.9,000.0,037.8,031.4,016.3,0000.0,0004.89,0001.57,0000.95
2024-06-06 05:45:00,SystemResetWarning,0829.7,5.00,000.00,029.7,029.0,000.0,037.8,031.5,016.1,0000.0,0004.07,0001.54,0000.96
2024-06-06 05:46:00,SystemResetWarning,0829.7,5.00,000.00,029.8,029.2,000.0,037.8,031.6,016.1,0000.0,0004.06,0001.52,0000.95
2024-06-06 05:47:00,SystemResetWarning,0829.7,5.00,000.00,029.8,029.3,000.0,037.9,031.6,016.1,0000.0,0004.13,0001.59,0000.95
2024-06-06 05:48:00,SystemResetWarning,0829.7,5.00,000.00,029.9,029.4,000.0,037.9,031.7,016.0,0000.0,0004.40,0001.58,0000.95
2024-06-06 05:49:00,SystemResetWarning,0829.7,5.00,000.00,029.9,029.5,000.0,037.9,031.7,016.2,0000.0,0004.82,0001.55,0000.95
2024-06-06 05:50:00,SystemResetWarning,0829.7,5.00,000.00,030.0,029.5,000.0,038.0,031.8,016.0,0000.0,0005.53,0001.55,0000.95
2024-06-06 05:51:00,SystemResetWarning,0829.7,5.00,000.00,030.1,029.5,000.0,038.0,031.8,016.0,0000.0,0005.76,0001.58,0000.96
2024-06-06 05:52:00,SystemResetWarning,0829.6,5.00,000.00,029.8,027.4,000.0,038.1,030.8,016.3,0000.0,0007.14,0001.61,0000.97
2024-06-06 05:53:00,SystemResetWarning,0829.6,5.02,000.00,029.5,026.4,000.0,038.1,030.2,016.6,0000.0,0007.16,0001.62,0000.98
2024-06-06 05:54:00,SystemResetWarning,0829.7,4.99,000.00,029.3,026.7,000.0,038.1,030.2,016.9,0000.0,0007.25,0001.62,0000.98
2024-06-06 05:55:00,SystemResetWarning,0829.7,4.99,000.00,029.3,027.1,000.0,037.9,030.5,017.0,0000.0,0007.28,0001.61,0000.98
2024-06-06 05:56:00,SystemResetWarning,0829.7,5.01,000.00,029.3,027.5,000.0,037.9,030.7,016.9,0000.0,0007.29,0001.60,0000.97
2024-06-06 05:57:00,SystemResetWarning,0829.7,5.02,000.00,029.4,027.8,000.0,037.8,030.9,016.8,0000.0,0007.29,0001.60,0000.97
2024-06-06 05:58:00,SystemResetWarning,0829.7,5.00,000.00,029.4,028.1,000.0,037.8,031.0,016.7,0000.0,0007.07,0001.55,0000.97
2024-06-06 05:59:00,SystemResetWarning,0829.7,5.00,000.00,029.5,028.4,000.0,037.8,031.1,016.6,0000.0,0006.03,0001.60,0000.97
